Regional Weather Roundup
Issued by NWS Mt. Holly, NJ

Home | Current Version | Previous Version | Text Only | Print | Product List | Glossary On
Versions: 1 2 3 4 5 6 7 8 9 10 11 12 13 14 15 16 17 18 19 20 21 22 23 24 25 26 27 28 29 30 31 32 33 34 35 36 37 38 39 40 41 42 43 44 45 46 47 48 49 50
000
ASUS41 KPHI 230310
RWRPHI

REGIONAL WEATHER ROUNDUP
NATIONAL WEATHER SERVICE MOUNT HOLLY NJ
1100 PM EDT FRI AUG 22 2014

NOTE:  "FAIR" INDICATES FEW OR NO CLOUDS BELOW 12,000 FEET WITH NO
SIGNIFICANT WEATHER AND/OR OBSTRUCTIONS TO VISIBILITY.

 * = STATION DOES NOT REPORT PRECIPITATION (E.G. RAIN, SNOW, ETC.)
        OR FOG.

NJZ015>026-230400-
SOUTHERN NEW JERSEY

CITY           SKY/WX    TMP DP  RH WIND       PRES   REMARKS
POMONA         PTCLDY    64  62  93 NE6       30.02S
RIO GRANDE*    CLEAR     70  61  73 NE7       30.01F
MILLVILLE      CLEAR     67  61  81 NE7       30.02S
WRIGHTSTOWN    MOCLDY    65  63  91 E6        30.01F
MOUNT HOLLY    MOCLDY    65  62  90 CALM      30.03F
TRENTON        CLOUDY    69  61  75 E5        30.04R

$$
NJZ001>014-230400-
NORTHERN NEW JERSEY

CITY           SKY/WX    TMP DP  RH WIND       PRES   REMARKS
SUSSEX         MOCLDY    68  63  84 E3        30.06F
ANDOVER*         N/A     67  61  81 NE3       30.06F
MORRISTOWN     CLOUDY    68  63  83 CALM      30.06S
NEWARK         MOCLDY    72  60  66 E3        30.05S
TETERBORO      CLOUDY    72  61  68 E7        30.05S
CALDWELL       CLOUDY    67  60  78 CALM      30.07S
SOMERVILLE     CLOUDY    69  60  73 CALM      30.03F
ALLAIRE*       CLOUDY    70  61  73 NE6       30.04F
TOMS RIVER*    CLOUDY    66  63  88 CALM      30.04S

$$
PAZ043-044-047-054-055-060>062-066>071-230400-
EASTERN PENNSYLVANIA

CITY           SKY/WX    TMP DP  RH WIND       PRES   REMARKS
PHILADELPHIA   CLOUDY    70  61  73 E9        30.04S
NORTH PHILA    CLOUDY    71  60  68 NE3       30.06R
BLUE BELL      CLOUDY    70  61  73 E5        30.04S
DOYLESTOWN     CLOUDY    67  60  78 CALM      30.05R
QUAKERTOWN*    MOCLDY    68  63  83 MISG      30.07R
POTTSTOWN      CLOUDY    70  60  70 CALM      30.06R
LANCASTER      CLOUDY    71  65  81 E7        30.03R
COATESVILLE    MOCLDY    68  68 100 SE5       30.05S
READING        CLOUDY    73  62  68 SE8G17    30.02R
ALLENTOWN      CLOUDY    70  59  68 E5        30.05R
MOUNT POCONO   CLOUDY    62  59  90 E9        30.09S FOG
HAZLETON       CLOUDY    66  63  88 SE5       30.09S
WILKES BARRE   LGT RAIN  68  63  84 CALM      30.05R

$$
DEZALL-MDZ008-012-015-019-020-230400-
DELAWARE AND EASTERN MARYLAND

CITY           SKY/WX    TMP DP  RH WIND       PRES   REMARKS
WILMINGTON     MOCLDY    71  63  75 E9        30.03S
DOVER          CLEAR     69  65  86 VRB3      30.00S
GEORGETOWN     MOCLDY    70  66  87 E13       30.01S
EASTON         CLOUDY    73  71  96 CALM      30.04
PATUXENT       CLOUDY    73  69  87 E7        29.99S
OCEAN CITY     PTCLDY    73  67  81 NE8       29.99R
WALLOPS ISLAND PTCLDY    74  69  85 E9        29.99R
CAMBRIDGE      CLEAR     70  68  94 E3        29.99S
SALISBURY      MOCLDY    72  67  84 CALM      30.00R

$$
PAZ001-021-NYZ056-072-MDZ011-DCZ001-230400-
OTHER NEARBY LOCATIONS

CITY           SKY/WX    TMP DP  RH WIND       PRES   REMARKS
HARRISBURG     CLOUDY    73  68  84 SE8       30.00S
STATE COLLEGE  CLOUDY    68  66  93 CALM      30.02S FOG
WILLIAMSPORT   CLOUDY    72  66  81 E9        29.99S
BINGHAMTON     CLOUDY    65  63  93 SE12      30.06R
NEW YORK CITY  CLOUDY    71  60  68 E7        30.08S
BALTIMORE      MOCLDY    73  67  81 E6        30.01R
WASHINGTON DC  CLOUDY    76  69  79 E3        30.01S

$$



USA.gov is the U.S. government's official web portal to all federal, state and local government web resources and services.